SCP
0 0 0 -0 -0 0 0 0 0 0 0 0 0 0 0 0 0 0 0 0 0 0 0 0 0 0 0 0 0 -0 0 0 0 0 0 -0 0 0 0 0 0 0 0 0
0 0 0 0 -0 0 0 0 0 0 0 0 0 0 0 0 0 0 0 0 0 0 0 0 0 0 0 -0 0 -0 -0 0 0 0 0 0 0 0 0 0 0 0 0 0
0 0 0 0 -0 0 0 0 0 0 0 0 0 0 0 0 0 0 0 0 0 0 0 0 0 -0 0 0 0 0 -0 0 0 0 0 0 0 0 0 0 0 0 0 0
0 0 0 0 0 0 0 0 0 0 0 0 0 0 0 0 0 0 0 0 0 0 0 0 0 -0 -0 -0 -0 0 0 -0 0 0 0 0 0 0 0 0 0 0 0 0
0 0 0 0 0 0 0 0 0 0 0 0 0 0 0 0 0 0 0 0 0 0 0 0 0 0 -0 -0 -0 -0 0 -0 -0 0 0 0 0 0 0 0 0 0 0 0
0 -0 0 0 0 0 0 0 0 0 0 0 0 0 0 0 0 0 0 0 0 0 0 0 0 0 -0 -0 -0 -0 -0 0 0 0 0 0 0 0 0 0 0 0 0 0
0 0 0 0 0 0 0 0 0 0 0 0 0 0 0 0 0 0 0 0 0 0 0 0 0 0 0 -0 -0 -0 0 0 0 0 0 0 0 0 0 -0 -0 0 0 0
0 0 0 0 0 0 0 0 0 0 0 0 0 0 0 0 0 0 0 0 0 0 0 0 0 0 0 -0 -0 -0 -0 0 0 0 0 0 0 0 0 0 0 0 -0 0
0 0 0 0 0 0 0 0 0 0 0 0 0 0 0 0 0 0 0 0 0 0 0 0 0 0 0 0 -0 -0 -0 0 0 0 0 0 0 0 0 0 0 0 0 0
0 0 0 0 -0 -0 0 0 0 0 0 0 0 0 0 0 0 0 0 0 0 0 0 0 0 0 0 0 0 0 -0 -0 0 0 0 0 0 0 0 0 0 0 0 0
0 0 0 0 0 0 0 0 0 0 0 0 0 0 0 0 0 0 0 0 0 0 0 0 0 0 0 0 0 0 -0 0 -0 0 0 0 0 0 0 0 0 0 0 0
0 0 0 0 -0 0 0 0 0 0 0 0 0 0 0 0 0 0 0 0 0 0 0 0 0 0 0 0 0 0 -0 -0 -0 -0 0 0 0 0 0 0 0 0 0 0
0 0 0 0 0 -0 0 0 0 0 0 0 0 0 0 0 0 0 0 0 0 0 0 0 0 0 0 0 0 0 -0 -0 -0 0 -0 0 0 0 0 0 0 0 0 0
0 0 0 0 0 0 0 0 0 0 0 0 0 0 0 0 0 0 0 0 0 0 0 0 0 0 0 0 0 -0 -0 -0 -0 -0 0 0 0 0 0 0 0 0 0 0
0 0 0 0 0 0 0 0 0 0 0 0 0 0 0 0 0 0 0 0 0 0 0 0 0 0 0 0 0 0 -0 -0 -0 -0 0 -0 -0 0 0 0 0 0 0 0
0 0 0 0 0 0 -0 0 0 0 0 0 0 -0 0 0 0 0 0 0 0 0 0 0 0 0 0 0 0 0 0 -0 -0 -0 0 -0 -0 -0 -0 0 0 0 0 0
0 0 0 0 0 0 -0 0 0 0 0 0 0 -0 0 0 0 0 0 0 0 0 0 0 0 0 0 0 0 0 0 0 -0 -0 -0 -0 -0 -0 -0 -0 0 0 0 0
0 0 0 0 0 0 0 0 0 0 0 -0 0 0 0 0 0 0 0 0 0 0 0 0 0 0 0 0 0 0 0 0 0 -0 -0 -0 -0 -0 -0 -0 0 0 0 0
0 0 0 0 0 0 0 0 0 0 0 -0 -0 0 0 0 -0 0 0 0 0 0 0 0 0 0 0 0 0 0 0 0 0 0 0 -0 -0 -0 -0 -0 -0 0 0 0
0 0 0 0 0 0 0 0 0 0 0 0 -0 0 0 0 0 0 0 0 0 0 0 0 0 0 0 0 0 0 0 0 0 0 0 0 0 0 -0 -0 -0 -0 0 -0
0 0 0 0 0 0 0 0 0 0 0 0 0 0 0 0 0 0 0 0 0 0 0 0 0 0 0 0 0 0 0 0 0 0 0 0 0 0 0 0 -0 -0 -0 0
0 0 0 0 0 0 0 0 0 0 0 0 0 0 0 0 0 0 0 0 0 0 0 0 0 0 0 0 0 0 0 0 0 0 0 0 0 0 0 0 0 0 0 0
0 0 0 0 0 0 0 0 0 0 0 0 0 0 0 0 0 0 0 0 0 0 0 0 0 0 0 0 0 0 0 0 0 0 0 0 0 0 0 0 0 0 0 0
0 0 0 0 0 0 0 -0 0 0 0 0 0 0 0 0 0 0 0 0 0 0 0 0 0 0 0 0 0 0 0 0 0 0 0 0 -0 -0 -0 -0 -0 0 -0 -0
0 0 0 0 0 0 0 0 0 0 0 0 0 0 0 0 0 0 0 0 0 0 0 0 0 0 0 0 0 0 0 0 0 0 0 0 0 0 0 0 0 0 -0 0
0 0 0 0 0 0 0 0 0 0 0 0 0 0 0 0 0 0 0 0 0 0 0 0 0 0 0 0 0 0 0 0 0 0 0 0 0 0 0 0 0 0 -0 0
Wind_Speed_500mb
17 17 9 9 13 9 10 5 6 9 6 12 8 11 15 8 10 13 18 21 22 26 29 32 33 37 37 34 30 22 17 16 10 9 18 21 21 24 28 55 59 61 57 53
12 7 3 3 9 10 9 6 6 14 10 6 11 20 13 9 11 13 15 21 23 25 27 32 34 36 39 42 39 29 22 17 14 12 6 11 18 18 26 22 43 48 68 57
10 0 6 6 8 5 6 8 5 8 15 6 14 11 8 6 12 16 18 20 22 24 26 31 35 35 38 41 40 38 29 21 16 15 14 13 11 11 21 24 12 35 69 60
8 8 4 3 5 6 6 6 5 8 11 7 9 7 10 8 13 13 26 25 23 23 23 27 32 34 39 40 36 36 35 28 18 18 16 19 22 16 13 24 12 15 45 62
1 9 8 4 5 8 6 2 3 4 5 7 4 5 12 9 11 10 18 25 20 21 22 26 29 33 35 38 35 32 34 33 22 17 17 21 26 25 22 19 22 18 8 38
5 3 2 4 4 8 6 7 9 7 5 6 6 6 10 6 9 9 11 14 16 17 19 25 29 30 33 32 31 28 28 30 24 18 17 17 23 29 29 25 21 23 15 16
11 3 6 4 4 7 6 9 8 11 9 8 5 5 16 9 10 10 14 15 14 16 17 25 30 30 30 33 32 28 28 27 24 22 20 18 20 24 31 32 29 33 29 20
8 12 6 8 3 4 7 7 10 8 6 11 4 9 9 7 15 17 20 19 19 18 21 24 28 31 33 35 31 24 25 22 20 17 17 18 19 21 26 31 34 33 32 36
8 9 5 4 4 6 6 11 6 11 5 5 7 14 15 7 15 22 24 19 22 20 22 24 26 29 30 32 27 23 24 22 19 19 18 17 20 20 20 29 33 34 36 32
8 6 2 6 5 7 2 13 8 7 7 11 10 12 9 9 13 12 18 21 22 23 24 24 26 24 24 25 23 22 23 21 20 18 18 17 16 18 18 22 29 33 34 37
9 7 8 3 3 6 2 3 9 9 6 8 4 13 13 11 9 14 24 25 24 24 26 26 27 26 24 24 22 22 22 18 18 19 19 17 15 14 17 18 23 28 30 33
5 8 5 11 4 2 2 6 6 8 9 4 7 14 4 13 21 25 33 34 34 31 28 28 27 28 25 24 24 24 21 20 18 18 21 20 18 16 14 14 15 17 20 26
12 2 6 10 7 7 5 7 5 11 6 10 11 12 5 18 23 29 34 40 40 38 28 24 25 25 24 24 21 19 20 19 22 13 20 19 19 17 15 11 7 3 3 13
14 4 11 10 10 8 4 6 11 10 7 9 13 14 27 14 14 47 52 28 30 29 20 16 15 16 18 21 23 20 19 20 22 13 16 18 18 15 16 13 9 10 9 10
6 7 4 7 6 3 8 10 17 17 11 13 9 16 18 19 15 54 40 23 23 25 21 14 11 9 11 15 18 18 16 16 15 14 14 16 17 18 17 16 13 16 15 15
5 4 4 8 2 1 10 18 21 13 6 19 1 28 22 39 24 27 25 25 25 20 22 18 14 10 7 8 12 13 13 13 11 10 11 15 16 19 16 16 14 16 18 18
13 11 5 10 4 6 13 17 28 12 12 16 15 27 9 5 12 21 22 28 34 23 19 20 17 13 10 7 8 8 9 9 10 9 8 10 14 16 14 15 11 13 14 15
11 10 4 6 7 4 10 8 14 15 10 36 21 15 20 16 17 35 42 47 49 40 24 22 15 13 12 7 4 8 11 12 12 8 9 9 7 6 6 9 12 12 9 12
2 8 5 3 5 15 5 10 16 16 16 40 43 25 22 21 29 44 5 8 16 30 28 23 18 12 11 10 3 4 9 14 11 9 9 7 6 6 5 8 6 6 9 8
6 8 6 5 7 11 8 6 17 7 11 19 53 25 22 18 2 9 5 1 4 8 17 20 19 14 11 9 7 3 5 10 10 7 5 6 7 6 6 6 7 7 14 12
6 3 11 5 7 17 14 17 21 10 12 18 46 30 39 15 23 10 9 5 4 5 10 18 20 17 12 12 10 8 7 8 9 7 2 0 2 1 3 5 9 12 16 17
16 17 9 6 4 17 34 16 16 8 9 20 31 33 40 30 17 17 16 12 11 10 12 17 23 22 19 18 16 13 11 12 11 11 9 5 4 5 6 7 11 12 14 15
9 15 14 22 17 3 70 16 48 8 13 23 30 30 26 26 28 20 19 19 19 19 18 21 25 27 27 25 23 21 16 15 16 14 13 12 11 10 11 12 13 16 16 15
11 15 6 6 14 35 39 69 33 41 25 25 26 25 24 23 19 20 21 21 21 22 21 23 29 35 37 33 29 22 26 27 25 22 19 17 15 14 13 14 14 15 15 16
13 30 14 11 26 29 41 63 61 59 43 37 31 29 23 26 26 29 33 32 29 28 29 28 32 38 40 40 38 33 35 37 33 31 31 27 24 22 20 19 19 20 21 21
27 16 14 14 46 29 42 51 56 69 68 64 54 48 41 45 38 35 39 31 28 27 28 34 36 40 46 46 46 44 44 46 44 44 43 39 35 32 30 27 26 26 26 27
Wind_Direction_500mb
27 60 51 308 285 132 130 96 305 278 310 349 286 289 279 249 269 294 312 326 342 346 348 348 355 358 357 359 354 348 330 307 298 299 209 186 208 214 233 219 220 216 214 214
27 68 336 276 321 98 71 63 315 283 277 308 321 293 274 224 244 261 288 309 327 334 339 342 349 356 358 356 354 355 344 321 300 282 249 223 200 193 205 216 230 224 214 210
105 328 9 134 333 122 66 77 311 256 320 251 330 310 310 280 250 254 260 286 306 319 330 338 343 352 358 357 355 352 351 335 318 279 262 257 238 203 194 209 180 206 209 210
70 347 22 75 306 288 109 141 274 305 16 310 33 286 295 298 282 255 262 265 288 307 317 329 335 344 352 355 354 350 347 343 326 295 277 246 253 236 222 205 192 145 184 196
283 8 1 32 288 304 193 80 91 350 350 11 352 61 272 341 310 303 297 261 278 300 308 324 331 334 344 346 348 346 353 346 331 312 282 255 246 252 242 225 210 213 189 180
92 23 346 299 310 277 304 118 64 57 15 19 329 93 285 270 244 293 307 292 284 295 302 318 326 331 337 340 341 346 354 355 344 330 311 274 256 248 248 247 225 218 251 189
353 308 312 27 299 292 43 51 357 358 10 222 2 10 251 277 263 247 284 303 301 298 299 316 324 332 335 344 345 348 351 352 350 345 327 298 273 257 247 248 243 239 248 236
119 318 340 4 89 295 5 113 135 234 311 288 328 237 257 234 287 276 281 291 296 292 296 310 323 333 339 345 349 350 352 353 356 345 346 333 302 272 258 246 247 242 236 236
125 283 318 52 15 94 281 50 139 100 34 344 282 290 298 282 286 280 285 297 302 293 292 305 321 332 338 348 352 348 354 358 1 349 350 344 333 308 270 255 247 242 241 234
193 0 248 325 41 6 113 164 73 12 41 316 303 293 251 290 275 283 287 296 309 306 303 305 314 325 334 343 346 342 341 349 359 4 357 350 340 323 303 269 255 243 237 234
140 105 282 13 165 180 1 42 58 106 115 154 303 275 218 240 273 273 281 293 309 310 308 309 313 321 330 338 342 345 355 354 6 12 3 3 352 338 323 310 278 249 238 233
162 137 234 215 233 337 279 225 146 121 250 129 137 275 288 257 287 294 289 297 298 303 303 301 306 315 323 335 343 351 359 1 5 17 16 12 7 3 346 330 308 278 232 224
167 282 347 345 13 1 230 208 127 92 73 198 140 262 328 300 292 287 290 302 303 295 287 289 296 309 317 329 340 346 351 1 13 15 20 21 19 17 10 4 344 335 203 202
130 107 185 197 186 129 194 218 182 131 126 174 232 288 299 292 286 299 306 293 303 302 290 286 291 298 312 325 334 342 353 1 16 32 24 29 37 41 36 40 50 82 102 137
146 213 176 271 265 204 209 187 194 192 192 174 249 219 254 266 274 303 304 295 300 303 294 290 290 289 306 325 331 332 341 357 15 38 37 37 45 44 50 59 76 95 108 139
167 229 125 287 307 108 269 223 205 210 251 279 80 285 243 283 285 286 299 291 291 296 295 288 285 288 295 326 331 336 344 358 22 40 45 49 54 49 55 62 82 101 110 124
156 137 114 270 346 343 300 223 186 187 209 173 184 220 215 301 263 280 300 295 286 285 292 286 287 283 281 309 343 12 11 17 27 85 59 68 64 57 63 70 83 95 118 125
145 120 94 255 351 335 240 132 177 202 224 219 268 231 200 203 251 282 284 280 279 277 280 282 273 274 270 277 343 28 48 58 70 91 91 85 55 64 83 71 80 90 121 135
341 135 90 151 219 296 213 188 163 178 273 205 222 239 225 246 296 299 286 275 296 278 261 260 250 246 251 269 294 70 70 90 88 83 76 49 40 51 111 149 148 107 111 128
85 60 118 121 172 227 248 184 183 199 298 190 200 223 174 162 140 261 173 81 351 304 260 255 249 246 234 234 250 211 124 112 123 113 78 41 35 55 84 149 180 165 173 162
128 63 179 162 230 285 236 151 146 99 240 179 196 195 167 180 202 157 186 209 275 304 268 261 258 255 239 231 221 227 203 164 156 158 177 54 30 118 165 162 174 158 155 169
164 158 186 106 119 270 155 115 180 214 163 182 184 184 194 200 181 204 225 232 235 254 271 279 271 263 254 248 245 226 221 216 198 194 187 206 228 212 204 194 186 185 182 180
226 188 182 189 206 257 182 201 211 221 201 190 187 188 197 213 228 238 241 247 250 246 249 261 272 270 264 262 250 252 241 236 239 223 215 207 195 207 212 206 200 184 181 186
241 185 199 106 240 231 228 223 235 221 214 209 193 186 199 223 235 248 258 266 262 261 259 259 262 266 269 267 264 258 241 251 250 245 245 239 225 217 212 210 207 209 199 190
176 142 169 268 282 262 267 239 235 230 227 213 201 207 226 240 252 269 277 278 274 262 259 261 269 272 272 269 267 261 250 257 253 251 247 241 240 235 231 226 216 209 211 211
184 169 178 211 224 224 250 246 245 228 228 228 232 237 242 253 262 274 277 277 271 264 258 255 261 269 275 272 267 261 256 257 256 256 251 252 249 240 234 233 236 229 224 223
Wind_Speed_850mb
17 17 9 9 13 9 10 5 6 9 6 12 8 11 15 8 10 13 18 21 22 26 29 32 33 37 37 34 30 22 17 16 10 9 18 21 21 24 28 55 59 61 57 53
12 7 3 3 9 10 9 6 6 14 10 6 11 20 13 9 11 13 15 21 23 25 27 32 34 36 39 42 39 29 22 17 14 12 6 11 18 18 26 22 43 48 68 57
10 0 6 6 8 5 6 8 5 8 15 6 14 11 8 6 12 16 18 20 22 24 26 31 35 35 38 41 40 38 29 21 16 15 14 13 11 11 21 24 12 35 69 60
8 8 4 3 5 6 6 6 5 8 11 7 9 7 10 8 13 13 26 25 23 23 23 27 32 34 39 40 36 36 35 28 18 18 16 19 22 16 13 24 12 15 45 62
1 9 8 4 5 8 6 2 3 4 5 7 4 5 12 9 11 10 18 25 20 21 22 26 29 33 35 38 35 32 34 33 22 17 17 21 26 25 22 19 22 18 8 38
5 3 2 4 4 8 6 7 9 7 5 6 6 6 10 6 9 9 11 14 16 17 19 25 29 30 33 32 31 28 28 30 24 18 17 17 23 29 29 25 21 23 15 16
11 3 6 4 4 7 6 9 8 11 9 8 5 5 16 9 10 10 14 15 14 16 17 25 30 30 30 33 32 28 28 27 24 22 20 18 20 24 31 32 29 33 29 20
8 12 6 8 3 4 7 7 10 8 6 11 4 9 9 7 15 17 20 19 19 18 21 24 28 31 33 35 31 24 25 22 20 17 17 18 19 21 26 31 34 33 32 36
8 9 5 4 4 6 6 11 6 11 5 5 7 14 15 7 15 22 24 19 22 20 22 24 26 29 30 32 27 23 24 22 19 19 18 17 20 20 20 29 33 34 36 32
8 6 2 6 5 7 2 13 8 7 7 11 10 12 9 9 13 12 18 21 22 23 24 24 26 24 24 25 23 22 23 21 20 18 18 17 16 18 18 22 29 33 34 37
9 7 8 3 3 6 2 3 9 9 6 8 4 13 13 11 9 14 24 25 24 24 26 26 27 26 24 24 22 22 22 18 18 19 19 17 15 14 17 18 23 28 30 33
5 8 5 11 4 2 2 6 6 8 9 4 7 14 4 13 21 25 33 34 34 31 28 28 27 28 25 24 24 24 21 20 18 18 21 20 18 16 14 14 15 17 20 26
12 2 6 10 7 7 5 7 5 11 6 10 11 12 5 18 23 29 34 40 40 38 28 24 25 25 24 24 21 19 20 19 22 13 20 19 19 17 15 11 7 3 3 13
14 4 11 10 10 8 4 6 11 10 7 9 13 14 27 14 14 47 52 28 30 29 20 16 15 16 18 21 23 20 19 20 22 13 16 18 18 15 16 13 9 10 9 10
6 7 4 7 6 3 8 10 17 17 11 13 9 16 18 19 15 54 40 23 23 25 21 14 11 9 11 15 18 18 16 16 15 14 14 16 17 18 17 16 13 16 15 15
5 4 4 8 2 1 10 18 21 13 6 19 1 28 22 39 24 27 25 25 25 20 22 18 14 10 7 8 12 13 13 13 11 10 11 15 16 19 16 16 14 16 18 18
13 11 5 10 4 6 13 17 28 12 12 16 15 27 9 5 12 21 22 28 34 23 19 20 17 13 10 7 8 8 9 9 10 9 8 10 14 16 14 15 11 13 14 15
11 10 4 6 7 4 10 8 14 15 10 36 21 15 20 16 17 35 42 47 49 40 24 22 15 13 12 7 4 8 11 12 12 8 9 9 7 6 6 9 12 12 9 12
2 8 5 3 5 15 5 10 16 16 16 40 43 25 22 21 29 44 5 8 16 30 28 23 18 12 11 10 3 4 9 14 11 9 9 7 6 6 5 8 6 6 9 8
6 8 6 5 7 11 8 6 17 7 11 19 53 25 22 18 2 9 5 1 4 8 17 20 19 14 11 9 7 3 5 10 10 7 5 6 7 6 6 6 7 7 14 12
6 3 11 5 7 17 14 17 21 10 12 18 46 30 39 15 23 10 9 5 4 5 10 18 20 17 12 12 10 8 7 8 9 7 2 0 2 1 3 5 9 12 16 17
16 17 9 6 4 17 34 16 16 8 9 20 31 33 40 30 17 17 16 12 11 10 12 17 23 22 19 18 16 13 11 12 11 11 9 5 4 5 6 7 11 12 14 15
9 15 14 22 17 3 70 16 48 8 13 23 30 30 26 26 28 20 19 19 19 19 18 21 25 27 27 25 23 21 16 15 16 14 13 12 11 10 11 12 13 16 16 15
11 15 6 6 14 35 39 69 33 41 25 25 26 25 24 23 19 20 21 21 21 22 21 23 29 35 37 33 29 22 26 27 25 22 19 17 15 14 13 14 14 15 15 16
13 30 14 11 26 29 41 63 61 59 43 37 31 29 23 26 26 29 33 32 29 28 29 28 32 38 40 40 38 33 35 37 33 31 31 27 24 22 20 19 19 20 21 21
27 16 14 14 46 29 42 51 56 69 68 64 54 48 41 45 38 35 39 31 28 27 28 34 36 40 46 46 46 44 44 46 44 44 43 39 35 32 30 27 26 26 26 27
Wind_Direction_850mb
27 60 51 308 285 132 130 96 305 278 310 349 286 289 279 249 269 294 312 326 342 346 348 348 355 358 357 359 354 348 330 307 298 299 209 186 208 214 233 219 220 216 214 214
27 68 336 276 321 98 71 63 315 283 277 308 321 293 274 224 244 261 288 309 327 334 339 342 349 356 358 356 354 355 344 321 300 282 249 223 200 193 205 216 230 224 214 210
105 328 9 134 333 122 66 77 311 256 320 251 330 310 310 280 250 254 260 286 306 319 330 338 343 352 358 357 355 352 351 335 318 279 262 257 238 203 194 209 180 206 209 210
70 347 22 75 306 288 109 141 274 305 16 310 33 286 295 298 282 255 262 265 288 307 317 329 335 344 352 355 354 350 347 343 326 295 277 246 253 236 222 205 192 145 184 196
283 8 1 32 288 304 193 80 91 350 350 11 352 61 272 341 310 303 297 261 278 300 308 324 331 334 344 346 348 346 353 346 331 312 282 255 246 252 242 225 210 213 189 180
92 23 346 299 310 277 304 118 64 57 15 19 329 93 285 270 244 293 307 292 284 295 302 318 326 331 337 340 341 346 354 355 344 330 311 274 256 248 248 247 225 218 251 189
353 308 312 27 299 292 43 51 357 358 10 222 2 10 251 277 263 247 284 303 301 298 299 316 324 332 335 344 345 348 351 352 350 345 327 298 273 257 247 248 243 239 248 236
119 318 340 4 89 295 5 113 135 234 311 288 328 237 257 234 287 276 281 291 296 292 296 310 323 333 339 345 349 350 352 353 356 345 346 333 302 272 258 246 247 242 236 236
125 283 318 52 15 94 281 50 139 100 34 344 282 290 298 282 286 280 285 297 302 293 292 305 321 332 338 348 352 348 354 358 1 349 350 344 333 308 270 255 247 242 241 234
193 0 248 325 41 6 113 164 73 12 41 316 303 293 251 290 275 283 287 296 309 306 303 305 314 325 334 343 346 342 341 349 359 4 357 350 340 323 303 269 255 243 237 234
140 105 282 13 165 180 1 42 58 106 115 154 303 275 218 240 273 273 281 293 309 310 308 309 313 321 330 338 342 345 355 354 6 12 3 3 352 338 323 310 278 249 238 233
162 137 234 215 233 337 279 225 146 121 250 129 137 275 288 257 287 294 289 297 298 303 303 301 306 315 323 335 343 351 359 1 5 17 16 12 7 3 346 330 308 278 232 224
167 282 347 345 13 1 230 208 127 92 73 198 140 262 328 300 292 287 290 302 303 295 287 289 296 309 317 329 340 346 351 1 13 15 20 21 19 17 10 4 344 335 203 202
130 107 185 197 186 129 194 218 182 131 126 174 232 288 299 292 286 299 306 293 303 302 290 286 291 298 312 325 334 342 353 1 16 32 24 29 37 41 36 40 50 82 102 137
146 213 176 271 265 204 209 187 194 192 192 174 249 219 254 266 274 303 304 295 300 303 294 290 290 289 306 325 331 332 341 357 15 38 37 37 45 44 50 59 76 95 108 139
167 229 125 287 307 108 269 223 205 210 251 279 80 285 243 283 285 286 299 291 291 296 295 288 285 288 295 326 331 336 344 358 22 40 45 49 54 49 55 62 82 101 110 124
156 137 114 270 346 343 300 223 186 187 209 173 184 220 215 301 263 280 300 295 286 285 292 286 287 283 281 309 343 12 11 17 27 85 59 68 64 57 63 70 83 95 118 125
145 120 94 255 351 335 240 132 177 202 224 219 268 231 200 203 251 282 284 280 279 277 280 282 273 274 270 277 343 28 48 58 70 91 91 85 55 64 83 71 80 90 121 135
341 135 90 151 219 296 213 188 163 178 273 205 222 239 225 246 296 299 286 275 296 278 261 260 250 246 251 269 294 70 70 90 88 83 76 49 40 51 111 149 148 107 111 128
85 60 118 121 172 227 248 184 183 199 298 190 200 223 174 162 140 261 173 81 351 304 260 255 249 246 234 234 250 211 124 112 123 113 78 41 35 55 84 149 180 165 173 162
128 63 179 162 230 285 236 151 146 99 240 179 196 195 167 180 202 157 186 209 275 304 268 261 258 255 239 231 221 227 203 164 156 158 177 54 30 118 165 162 174 158 155 169
164 158 186 106 119 270 155 115 180 214 163 182 184 184 194 200 181 204 225 232 235 254 271 279 271 263 254 248 245 226 221 216 198 194 187 206 228 212 204 194 186 185 182 180
226 188 182 189 206 257 182 201 211 221 201 190 187 188 197 213 228 238 241 247 250 246 249 261 272 270 264 262 250 252 241 236 239 223 215 207 195 207 212 206 200 184 181 186
241 185 199 106 240 231 228 223 235 221 214 209 193 186 199 223 235 248 258 266 262 261 259 259 262 266 269 267 264 258 241 251 250 245 245 239 225 217 212 210 207 209 199 190
176 142 169 268 282 262 267 239 235 230 227 213 201 207 226 240 252 269 277 278 274 262 259 261 269 272 272 269 267 261 250 257 253 251 247 241 240 235 231 226 216 209 211 211
184 169 178 211 224 224 250 246 245 228 228 228 232 237 242 253 262 274 277 277 271 264 258 255 261 269 275 272 267 261 256 257 256 256 251 252 249 240 234 233 236 229 224 223